Find Starlink 4186

NORAD ID: 52880 Int'l Des: 2022-062 Owner: SPXS Country: US Constellation: starlink operational
LEOCIRCULAR

实时位置

正在加载3D地球...

关于 Starlink 4186

正在加载描述...

即将过境

Passes for default location (London). Set your location on the main map for personalized predictions.

高度历史

Loading altitude history...

两行轨道根数

1 52880U 22062BC 26105.68078609 .00000163 00000-0 28336-4 0 9999
2 52880 53.2161 208.0625 0001198 89.2692 270.8437 15.08839670211654
Epoch: Apr 15, 2026 • Age: 16 hours

当前状态

高度 542.3 km
速度 7.60 km/s
星下点 38.20°N, 90.52°W
发射日期 Jun 17, 2022
运行时间 3.8 years
类型 internet

技术详情

分类 Payload
质量 297.00 kg
干质量 275.00 kg
总质量 297.00 kg
长度 0.20 m
直径 2.80 m
跨度 9.00 m
形状 Box + pan
制造商 SPXS
平台类型 Starlink
阶段状态 In Orbit
所有者/国家 SPXS/US

Most Searched